SL-14 DEB, 45292

Orbit data source: Space-Track

SL-14 DEB, 45292 is space debris in LEO originally from a launch on Thu, 15 Aug 1991 UTC launched from the Plesetsk Missile And Space Complex (PKMTR). Debris objects in space refer to the collection of defunct objects orbiting the Earth. Examples of debris include non-operational satellites, rocket bodies, and fragments generated from explosions, collisions, or faulty payload assembly.

Loading next visibility...
Identifier
45292, 1991-056AE
Orbit
LEO
Country
Flag of CISCIS
Related business
Manufacturer
Unknown
Mission
Spacecraft
Bus & Motor
Unknown
Mass
Unknown
Launch date (UTC)
1991-08-15 (35 years ago)
Launch vehicle
Unknown
Launch site
Plesetsk Missile And Space Complex (PKMTR)
Object type
Payload
Rocket body
Debris
Shape & HBR
Unknown shape, 0.1 m
Radar Cross Section
Small (<0.1 m²)

Expand to show TLE details & history
Last TLE update: 1 day ago

TLE from 1 day ago
0 SL-14 DEB
1 45292U 91056AE  26202.10546434  .00003158  00000-0  53788-2 0  9992
2 45292  82.6192  88.2462 0089924  78.4086 282.7129 13.43105135312101
Epoch: 2026-07-21T02:31Z
TLE epoch observation values (Epoch: 2026-07-21T02:31:52.118Z)
Latitude
-0.00002°
Longitude
111.39911°
Altitude
1,086.361 km
Speed
7.316 km/s
True Right ascension
05h 52m 59s
True Declination
0° 00' 00"
Sunlit
Object was in daylight at epoch
Visualization orbit readout
Latitude
Unknown
Longitude
Unknown
Altitude
Unknown
Speed
Unknown
Apparent Right ascension
Unknown
Apparent Declination
Unknown
Sunlit
N/A
Visualization observer readout
Local Sidereal Time
18:28:54
Azimuth
Unknown
Elevation
Unknown
Doppler factor
Unknown
Orbital elements
Apogee altitude
1,162.141 km
Perigee altitude
1,027.739 km
Semi-major axis
7,473.077 km
Eccentricity
0.00899
Inclination
82.6192°
RAAN
88.2462°
Arg. of periapsis
78.4086°
True anomaly
281.70527°
Mean anomaly
282.7129°
Eccentric anomaly
282.20933°
Mean motion
3.35965 °/min
Orbital period
107.15 mins
BSTAR
0.0053788
Loading maneuver chart data...
Computing Atmospheric mass density...
Loading historical data...
Loading historical data...
Loading historical data...
Loading historical data...
Loading historical data...
Loading historical data...
Loading historical data...

Documentation

Showing up to 5 results
|